• In Netherlands
  • List of Countries
  • For 7 days
  • Water Temperature
  • Satellite Maps
  • Weather Map
  • Weather Widgets
  • user-avatar
    Login

    Hourly Weather Fier

    Today, 26 February, Sunday

    Time Temperature Precipitation Wind Pressure Humidity
    00:00 +11°C° 0 mm 3 mps 762 mmHg 82%
    01:00 +11°C° 0 mm 3 mps 763 mmHg 82%
    02:00 +11°C° 0 mm 3 mps 763 mmHg 82%
    03:00 +11°C° 0 mm 3 mps 763 mmHg 82%
    04:00 +11°C° 0 mm 3 mps 763 mmHg 82%
    05:00 +11°C° 0 mm 3 mps 763 mmHg 81%
    06:00 +11°C° 0 mm 3 mps 763 mmHg 81%
    07:00 +11°C° 0 mm 3 mps 763 mmHg 81%
    08:00 +13°C° 0 mm 3 mps 763 mmHg 77%
    09:00 +14°C° 0 mm 3 mps 763 mmHg 73%
    10:00 +17°C° 0 mm 3 mps 763 mmHg 69%
    11:00 +18°C° 0 mm 3 mps 763 mmHg 64%
    12:00 +19°C° 0 mm 2 mps 763 mmHg 59%
    13:00 +19°C° 0 mm 2 mps 762 mmHg 54%
    14:00 +19°C° 0 mm 2 mps 762 mmHg 57%
    15:00 +19°C° 0 mm 2 mps 762 mmHg 60%
    16:00 +18°C° 0 mm 2 mps 762 mmHg 63%
    17:00 +17°C° 0 mm 2 mps 762 mmHg 71%
    18:00 +15°C° 0 mm 2 mps 762 mmHg 78%
    19:00 +14°C° 0 mm 2 mps 762 mmHg 86%
    20:00 +14°C° 0.1 mm 2 mps 762 mmHg 87%
    21:00 +13°C° 0.1 mm 2 mps 763 mmHg 88%
    22:00 +13°C° 0.1 mm 2 mps 763 mmHg 89%
    23:00 +13°C° 0 mm 2 mps 763 mmHg 89%

    Tomorrow, 27 February, Monday

    Time Temperature Precipitation Wind Pressure Humidity
    00:00 +12°C° 0 mm 2 mps 762 mmHg 89%
    01:00 +12°C° 0 mm 2 mps 762 mmHg 89%
    02:00 +12°C° 0 mm 2 mps 762 mmHg 88%
    03:00 +12°C° 0 mm 2 mps 762 mmHg 88%
    04:00 +12°C° 0 mm 2 mps 762 mmHg 87%
    05:00 +12°C° 0 mm 2 mps 762 mmHg 85%
    06:00 +12°C° 0 mm 2 mps 762 mmHg 84%
    07:00 +12°C° 0 mm 2 mps 762 mmHg 82%
    08:00 +14°C° 0 mm 2 mps 762 mmHg 74%
    09:00 +16°C° 0 mm 1 mps 762 mmHg 67%
    10:00 +19°C° 0 mm 1 mps 762 mmHg 60%
    11:00 +20°C° 0 mm 1 mps 762 mmHg 57%
    12:00 +20°C° 0 mm 1 mps 761 mmHg 55%
    13:00 +21°C° 0 mm 1 mps 761 mmHg 52%
    14:00 +20°C° 0 mm 1 mps 761 mmHg 55%
    15:00 +19°C° 0 mm 2 mps 761 mmHg 58%
    16:00 +18°C° 0 mm 2 mps 760 mmHg 61%
    17:00 +16°C° 0 mm 2 mps 761 mmHg 68%
    18:00 +15°C° 0 mm 1 mps 761 mmHg 74%
    19:00 +13°C° 0 mm 1 mps 761 mmHg 81%
    20:00 +12°C° 0 mm 1 mps 761 mmHg 83%
    21:00 +12°C° 0 mm 2 mps 762 mmHg 84%
    22:00 +12°C° 0 mm 2 mps 762 mmHg 86%
    23:00 +10°C° 0 mm 2 mps 762 mmHg 87%

    Day after tomorrow, 28 February, Tuesday

    Time Temperature Precipitation Wind Pressure Humidity
    00:00 +10°C° 0 mm 2 mps 761 mmHg 87%
    01:00 +10°C° 0 mm 2 mps 761 mmHg 88%
    02:00 +10°C° 0 mm 1 mps 761 mmHg 88%
    03:00 +10°C° 0 mm 1 mps 761 mmHg 88%
    04:00 +10°C° 0 mm 1 mps 760 mmHg 88%
    05:00 +9°C° 0 mm 2 mps 761 mmHg 87%
    06:00 +10°C° 0 mm 2 mps 761 mmHg 85%
    07:00 +10°C° 0 mm 2 mps 761 mmHg 84%
    08:00 +13°C° 0 mm 2 mps 761 mmHg 76%
    09:00 +16°C° 0 mm 3 mps 761 mmHg 69%
    10:00 +18°C° 0 mm 3 mps 761 mmHg 61%
    11:00 +18°C° 0 mm 3 mps 761 mmHg 60%
    12:00 +19°C° 0 mm 4 mps 760 mmHg 59%
    13:00 +19°C° 0 mm 4 mps 760 mmHg 58%
    14:00 +19°C° 0 mm 5 mps 760 mmHg 61%
    15:00 +17°C° 0 mm 5 mps 760 mmHg 64%
    16:00 +17°C° 0 mm 5 mps 759 mmHg 67%
    17:00 +15°C° 0 mm 5 mps 759 mmHg 75%
    18:00 +14°C° 0 mm 5 mps 760 mmHg 82%
    19:00 +12°C° 0 mm 5 mps 760 mmHg 90%
    20:00 +12°C° 0 mm 5 mps 760 mmHg 90%
    21:00 +12°C° 0 mm 5 mps 760 mmHg 91%
    22:00 +10°C° 0 mm 6 mps 760 mmHg 91%
    23:00 +10°C° 0 mm 6 mps 760 mmHg 91%

    1 March, Wednesday

    Time Temperature Precipitation Wind Pressure Humidity
    00:00 +10°C° 0 mm 6 mps 759 mmHg 91%
    01:00 +10°C° 0 mm 6 mps 759 mmHg 91%
    02:00 +10°C° 0 mm 6 mps 759 mmHg 91%
    03:00 +10°C° 0 mm 6 mps 759 mmHg 91%
    04:00 +10°C° 0 mm 5 mps 759 mmHg 90%
    05:00 +10°C° 0 mm 5 mps 759 mmHg 90%
    06:00 +10°C° 0 mm 5 mps 759 mmHg 89%
    07:00 +10°C° 0 mm 5 mps 759 mmHg 89%
    08:00 +13°C° 0.2 mm 5 mps 759 mmHg 83%
    09:00 +14°C° 0.2 mm 6 mps 758 mmHg 77%
    10:00 +16°C° 0.2 mm 6 mps 758 mmHg 70%
    11:00 +16°C° 0.7 mm 6 mps 758 mmHg 71%
    12:00 +15°C° 0.7 mm 6 mps 758 mmHg 71%
    13:00 +15°C° 0.7 mm 6 mps 758 mmHg 71%
    14:00 +15°C° 0.3 mm 6 mps 758 mmHg 72%
    15:00 +14°C° 0.3 mm 6 mps 758 mmHg 72%
    16:00 +13°C° 0.3 mm 5 mps 759 mmHg 72%
    17:00 +12°C° 0 mm 5 mps 759 mmHg 75%
    18:00 +11°C° 0 mm 4 mps 760 mmHg 78%
    19:00 +10°C° 0 mm 4 mps 761 mmHg 81%
    20:00 +9°C° 0 mm 3 mps 761 mmHg 82%
    21:00 +9°C° 0 mm 3 mps 762 mmHg 84%
    22:00 +8°C° 0 mm 3 mps 762 mmHg 85%
    23:00 +8°C° 0 mm 2 mps 762 mmHg 86%

    2 March, Thursday

    Time Temperature Precipitation Wind Pressure Humidity
    00:00 +7°C° 0 mm 2 mps 762 mmHg 87%
    01:00 +7°C° 0 mm 2 mps 762 mmHg 88%
    02:00 +7°C° 0 mm 2 mps 762 mmHg 87%
    03:00 +8°C° 0 mm 1 mps 762 mmHg 87%
    04:00 +7°C° 0 mm 1 mps 762 mmHg 87%
    05:00 +8°C° 0 mm 1 mps 762 mmHg 84%
    06:00 +7°C° 0 mm 2 mps 762 mmHg 82%
    07:00 +8°C° 0 mm 2 mps 763 mmHg 79%
    08:00 +11°C° 0 mm 1 mps 763 mmHg 69%
    09:00 +13°C° 0 mm 1 mps 763 mmHg 60%
    10:00 +15°C° 0 mm 1 mps 763 mmHg 50%
    11:00 +16°C° 0 mm 2 mps 763 mmHg 47%
    12:00 +17°C° 0 mm 2 mps 762 mmHg 44%
    13:00 +18°C° 0 mm 2 mps 762 mmHg 41%
    14:00 +17°C° 0 mm 2 mps 762 mmHg 46%
    15:00 +17°C° 0 mm 3 mps 762 mmHg 50%
    16:00 +16°C° 0 mm 3 mps 762 mmHg 54%
    17:00 +13°C° 0 mm 3 mps 762 mmHg 63%
    18:00 +12°C° 0 mm 2 mps 763 mmHg 71%
    19:00 +9°C° 0 mm 2 mps 763 mmHg 80%
    20:00 +9°C° 0 mm 2 mps 763 mmHg 80%
    21:00 +9°C° 0 mm 2 mps 764 mmHg 80%
    22:00 +8°C° 0 mm 2 mps 764 mmHg 80%
    23:00 +8°C° 0 mm 2 mps 764 mmHg 78%

    3 March, Friday

    Time Temperature Precipitation Wind Pressure Humidity
    00:00 +8°C° 0 mm 2 mps 764 mmHg 75%
    01:00 +8°C° 0 mm 2 mps 764 mmHg 73%
    02:00 +8°C° 0 mm 2 mps 764 mmHg 71%
    03:00 +8°C° 0 mm 2 mps 764 mmHg 69%
    04:00 +8°C° 0 mm 2 mps 764 mmHg 68%
    05:00 +8°C° 0 mm 2 mps 764 mmHg 66%
    06:00 +8°C° 0 mm 2 mps 764 mmHg 64%
    07:00 +9°C° 0 mm 2 mps 764 mmHg 62%
    08:00 +12°C° 0 mm 1 mps 764 mmHg 55%
    09:00 +15°C° 0 mm 1 mps 764 mmHg 48%
    10:00 +18°C° 0 mm 1 mps 764 mmHg 42%
    11:00 +18°C° 0 mm 2 mps 764 mmHg 42%
    12:00 +19°C° 0 mm 2 mps 764 mmHg 43%
    13:00 +20°C° 0 mm 2 mps 763 mmHg 43%
    14:00 +19°C° 0 mm 3 mps 763 mmHg 48%
    15:00 +19°C° 0 mm 3 mps 763 mmHg 53%
    16:00 +18°C° 0 mm 3 mps 763 mmHg 57%
    17:00 +16°C° 0 mm 3 mps 763 mmHg 66%
    18:00 +13°C° 0 mm 3 mps 764 mmHg 74%
    19:00 +11°C° 0 mm 3 mps 764 mmHg 82%
    20:00 +11°C° 0 mm 3 mps 764 mmHg 81%
    21:00 +11°C° 0 mm 3 mps 764 mmHg 81%
    22:00 +11°C° 0 mm 3 mps 764 mmHg 81%
    23:00 +10°C° 0 mm 4 mps 764 mmHg 82%
    Show more